Wind_Speed
5 1 2 4 7 10 11 14 17 19 21 24 25 26 27 28 29 30 31 31 31 31 32 32 33 34 34 34 34 34 35 35 35 34 34 35 35 35 35 36 36 35 35
11 8 5 2 2 4 6 8 11 14 17 19 21 23 23 25 25 26 27 28 29 30 30 31 31 32 32 33 34 33 34 34 34 34 33 34 34 34 35 35 34 33 33
13 11 8 6 3 1 2 4 6 9 11 13 15 17 18 20 22 24 25 26 27 28 28 29 29 29 30 29 30 31 31 32 31 32 31 31 31 31 31 32 31 30 30
15 14 12 10 8 7 4 2 1 2 5 7 10 12 14 16 18 20 22 22 23 24 25 26 27 28 28 27 27 27 27 28 29 28 28 28 28 29 28 28 27 26 26
16 15 14 13 12 10 8 6 4 3 2 3 6 8 10 12 13 15 17 18 19 20 21 22 23 24 25 25 26 26 26 25 26 25 25 25 24 23 22 22 23 23 22
18 17 17 16 14 13 11 9 8 7 6 5 5 6 7 9 10 12 14 15 17 18 19 20 21 21 22 22 23 24 23 23 23 22 21 21 21 19 19 19 19 19 19
19 18 18 17 16 15 14 13 11 10 9 8 7 7 7 8 9 11 12 13 15 16 17 18 19 19 19 19 20 21 21 21 20 18 17 17 17 16 16 16 17 17 17
20 20 20 19 18 17 16 16 15 13 12 11 9 9 8 7 7 7 8 9 10 11 12 13 14 15 15 15 16 17 16 17 17 16 16 15 15 15 16 16 15 15 15
20 19 19 19 18 18 18 17 16 15 15 14 12 11 9 8 7 6 6 6 7 7 8 9 10 10 11 12 12 13 13 14 14 14 14 14 14 14 14 14 14 14 14
20 19 19 19 19 19 19 18 17 17 16 16 14 13 12 9 7 6 5 5 4 5 5 6 7 8 9 10 11 11 12 12 12 13 13 13 13 13 13 12 12 13 13
19 19 19 19 19 19 19 19 18 18 17 17 16 15 13 11 8 6 4 3 2 1 2 3 4 6 7 8 9 10 10 10 11 11 12 12 12 12 11 11 11 11 10
19 19 19 20 20 20 20 20 19 19 19 18 17 17 15 13 11 9 7 5 4 3 3 3 3 5 6 7 7 8 8 9 9 10 10 10 10 10 10 9 9 8 8
20 19 19 20 20 20 21 21 21 20 20 19 19 18 17 16 14 12 11 10 8 7 6 6 5 5 5 6 6 7 8 7 7 7 7 7 7 8 8 7 7 6 5
20 20 20 20 20 21 21 21 21 22 22 21 20 19 18 17 16 15 14 13 12 11 10 9 8 8 7 7 7 8 7 7 7 6 6 6 6 6 6 6 5 5 4
19 20 20 20 20 20 21 21 21 22 23 23 22 20 19 19 18 17 16 16 15 14 13 12 11 10 10 9 9 9 8 7 7 6 6 6 6 5 5 5 5 4 3
18 19 20 20 20 20 21 21 21 21 22 23 23 22 21 20 19 19 18 18 17 16 15 14 13 12 11 11 10 10 10 9 8 7 7 7 6 6 6 5 4 4 3
16 17 18 19 19 20 20 20 20 21 21 22 23 23 22 21 21 20 19 19 18 17 17 16 15 14 13 12 12 11 11 10 10 10 9 8 8 7 7 6 6 5 4
13 14 16 17 18 18 19 19 19 20 20 21 21 22 22 21 21 21 21 20 19 18 17 17 16 15 15 15 14 14 13 13 12 11 10 9 8 8 8 7 7 6 6
10 11 13 14 15 16 16 17 17 18 18 19 19 20 20 21 20 20 20 20 19 18 18 17 17 16 16 16 15 15 14 14 13 12 11 10 9 9 8 8 7 6 5
9 9 10 11 12 13 14 14 15 15 16 16 17 17 18 18 18 18 18 18 18 18 17 17 16 16 15 15 15 14 13 13 12 12 11 10 10 9 8 7 6 5 5
8 8 9 9 9 10 11 11 12 12 13 13 13 14 14 14 15 16 16 16 16 16 15 15 15 14 14 13 13 12 11 11 10 9 9 8 7 6 6 5 4 4 3
8 8 8 8 8 8 8 9 9 9 10 10 10 10 11 11 11 12 12 12 12 13 13 13 13 13 12 12 11 11 10 9 9 8 7 6 6 5 4 4 3 2 2
9 9 8 8 8 8 8 8 7 7 8 8 8 8 8 8 8 8 8 8 9 8 8 9 9 9 9 9 8 8 8 7 7 6 5 5 4 4 3 2 2 2 2
11 11 10 10 9 9 9 8 8 8 7 7 7 6 6 6 6 6 5 5 5 5 5 5 5 5 5 5 5 5 4 4 4 4 3 3 2 2 2 3 3 4 4
14 13 13 12 12 11 11 11 10 10 9 9 8 8 7 7 6 6 6 5 5 5 4 4 4 4 4 3 3 3 3 3 3 3 3 4 4 4 5 5 5 6 6
16 16 15 15 14 14 14 13 13 13 12 12 11 11 10 10 9 9 8 8 7 7 7 7 6 6 6 6 6 5 5 5 5 6 6 6 6 7 7 7 7 7 7
Wind_Direction
37 43 215 227 230 236 240 241 241 240 240 241 243 245 248 249 251 251 252 253 254 255 256 256 255 254 255 255 253 251 250 251 252 253 254 255 256 256 255 255 256 256 256
54 63 78 115 202 234 238 242 243 244 245 245 245 247 248 249 250 250 252 253 253 254 255 254 254 253 253 253 252 252 251 252 252 252 253 253 254 254 254 254 255 256 256
55 56 63 62 55 30 264 252 251 248 246 245 245 247 249 250 251 251 251 253 253 254 255 255 253 252 251 252 251 249 248 249 250 250 251 251 251 252 254 256 257 258 256
53 53 55 60 61 55 47 36 333 256 245 247 252 254 254 254 254 253 253 252 252 251 252 252 250 248 248 248 248 246 247 248 246 246 247 249 252 253 253 254 254 254 254
51 51 52 53 56 53 47 44 35 12 318 280 275 267 262 258 257 256 254 252 249 249 249 247 246 245 245 245 246 246 246 247 244 245 246 248 249 249 249 250 250 250 252
51 52 52 52 51 47 42 38 33 22 7 344 325 303 284 275 268 262 259 253 250 249 249 247 245 245 244 244 243 242 241 241 240 240 241 242 243 244 245 245 246 247 250
52 51 50 49 48 46 42 38 33 26 18 7 353 337 318 299 283 271 264 258 254 250 250 250 245 241 238 238 238 238 237 235 235 237 238 238 239 240 242 243 245 249 252
51 50 49 47 44 41 37 34 30 26 21 13 3 352 338 321 303 289 276 266 258 253 250 248 244 244 240 236 236 234 233 230 229 229 231 234 237 240 243 244 246 249 253
48 46 43 40 38 35 32 30 27 24 20 16 11 4 353 340 323 309 290 279 268 251 247 245 239 234 232 229 227 225 227 225 225 228 230 233 235 235 238 242 245 251 255
43 41 39 36 34 32 30 28 27 25 22 18 15 11 6 358 342 325 310 296 283 267 254 242 233 226 221 217 216 216 220 221 221 223 225 228 231 232 235 239 244 249 253
39 37 35 34 32 31 29 28 27 25 24 22 20 18 17 15 12 3 356 349 327 274 228 216 214 212 209 208 212 210 212 214 215 215 217 223 227 229 231 234 239 245 250
37 35 34 33 32 30 29 28 28 27 27 26 25 25 27 30 33 35 37 41 57 85 116 139 163 179 189 194 201 204 207 209 212 212 215 219 223 224 227 231 236 241 244
36 36 35 34 33 32 31 30 30 31 31 31 31 33 37 41 45 49 51 56 66 82 93 99 110 132 156 171 179 187 192 196 198 200 201 205 208 212 215 219 226 226 229
36 35 35 35 35 34 33 33 34 35 36 36 38 40 44 48 51 55 59 62 66 75 84 90 95 105 117 127 137 151 161 166 169 176 181 187 192 195 197 196 196 198 204
36 36 36 36 36 36 36 36 37 38 39 40 42 45 48 51 54 58 61 65 69 75 80 86 90 94 100 106 112 121 128 136 145 151 157 162 165 164 166 172 180 187 194
36 36 37 37 37 38 39 40 40 42 43 44 46 49 52 54 57 59 62 67 72 76 79 82 85 88 92 98 103 108 114 119 125 130 133 136 140 143 146 150 154 156 156
33 35 36 37 38 39 40 42 43 45 46 48 50 52 55 57 58 60 62 66 70 74 77 79 81 83 87 93 98 102 108 113 112 114 118 122 126 127 125 122 123 125 126
29 31 33 35 37 39 40 42 44 46 48 50 52 53 55 58 59 61 64 67 71 73 76 78 80 82 86 90 94 97 101 105 107 109 112 115 116 114 112 110 110 111 111
19 23 27 30 34 36 38 40 42 45 48 50 52 54 56 57 60 62 64 66 69 71 73 75 77 80 84 87 90 93 96 98 100 101 103 105 108 109 108 106 104 101 98
8 11 15 20 25 29 33 35 38 41 44 47 49 52 55 56 58 61 63 65 67 69 71 73 75 78 82 85 87 90 92 94 94 96 98 100 101 102 102 100 97 94 89
352 357 1 5 11 17 23 27 31 34 37 41 44 48 51 53 55 57 59 61 64 67 69 71 73 76 79 81 83 85 88 90 91 93 93 94 95 95 93 91 87 86 82
337 339 344 349 353 358 4 12 18 22 26 29 33 37 42 45 48 50 54 57 61 64 67 69 70 71 73 75 78 80 82 84 86 87 87 88 89 89 87 85 83 77 62
323 326 327 330 335 339 343 347 354 1 7 12 15 19 23 27 30 35 39 44 49 53 56 59 61 64 65 68 70 70 70 72 74 76 76 77 77 75 71 65 50 21 360
303 307 310 312 313 316 320 323 326 329 334 339 345 349 353 356 0 4 7 10 14 21 27 33 37 40 43 47 50 50 49 49 49 44 39 30 19 5 350 336 328 323 322
292 295 297 298 300 301 303 303 305 307 308 310 312 314 317 319 321 324 326 328 328 329 330 331 332 336 342 346 348 348 348 349 348 346 342 334 327 323 319 317 315 315 315
283 286 289 291 292 292 293 294 294 294 294 295 296 296 297 297 296 295 296 298 298 298 298 298 298 298 300 300 300 300 302 303 305 307 311 312 311 309 309 308 308 309 310
Height
5777 5776 5776 5777 5778 5780 5781 5782 5783 5785 5787 5789 5791 5793 5795 5797 5798 5800 5801 5803 5804 5805 5806 5807 5808 5810 5811 5812 5813 5815 5816 5818 5820 5821 5822 5824 5825 5826 5828 5829 5831 5832 5833
5780 5778 5778 5778 5778 5778 5779 5779 5780 5782 5783 5784 5786 5787 5789 5790 5791 5792 5794 5795 5796 5797 5797 5798 5799 5801 5802 5803 5805 5806 5808 5809 5811 5812 5813 5815 5816 5818 5819 5821 5822 5823 5825
5783 5782 5780 5780 5779 5779 5778 5778 5779 5779 5779 5780 5781 5782 5783 5783 5784 5785 5786 5787 5788 5788 5789 5790 5791 5793 5794 5795 5796 5798 5799 5801 5803 5804 5805 5807 5808 5810 5811 5813 5814 5816 5817
5787 5785 5783 5782 5781 5780 5779 5778 5778 5777 5777 5778 5778 5778 5778 5778 5778 5779 5779 5780 5781 5781 5782 5782 5784 5785 5786 5788 5789 5790 5791 5793 5795 5796 5798 5799 5801 5802 5804 5806 5807 5809 5810
5791 5788 5787 5785 5783 5782 5781 5779 5778 5777 5776 5776 5775 5775 5774 5774 5773 5773 5773 5774 5774 5774 5775 5776 5777 5778 5779 5780 5782 5783 5784 5786 5787 5789 5791 5792 5794 5796 5798 5799 5801 5803 5804
5795 5793 5791 5788 5786 5784 5782 5781 5779 5777 5776 5774 5773 5772 5770 5769 5769 5768 5768 5768 5768 5768 5769 5769 5770 5771 5772 5774 5775 5777 5778 5780 5781 5783 5785 5787 5789 5791 5793 5794 5796 5798 5800
5799 5797 5794 5792 5789 5787 5785 5782 5780 5778 5775 5773 5771 5769 5767 5766 5765 5764 5763 5762 5762 5763 5763 5764 5764 5765 5767 5768 5769 5771 5773 5775 5777 5778 5780 5782 5785 5786 5788 5790 5792 5794 5795
5804 5801 5798 5796 5793 5790 5787 5784 5781 5778 5775 5772 5770 5767 5765 5763 5761 5760 5759 5758 5757 5758 5758 5758 5759 5760 5761 5762 5764 5766 5768 5770 5772 5775 5777 5779 5781 5783 5785 5787 5788 5790 5791
5808 5805 5802 5799 5796 5792 5789 5785 5782 5779 5775 5772 5769 5766 5763 5761 5759 5757 5756 5755 5754 5754 5754 5754 5755 5756 5758 5759 5761 5762 5764 5766 5769 5771 5773 5776 5778 5780 5782 5784 5785 5787 5788
5812 5809 5806 5802 5799 5795 5791 5787 5784 5780 5776 5772 5769 5765 5762 5759 5757 5755 5753 5752 5751 5751 5751 5752 5752 5753 5755 5756 5758 5760 5762 5764 5766 5768 5771 5773 5775 5777 5779 5781 5782 5783 5784
5816 5812 5809 5805 5801 5798 5794 5790 5786 5782 5778 5774 5769 5765 5762 5758 5756 5754 5752 5751 5750 5749 5750 5750 5750 5751 5753 5755 5756 5758 5760 5762 5764 5766 5769 5771 5773 5775 5776 5778 5779 5780 5781
5819 5816 5812 5808 5804 5800 5796 5792 5788 5784 5780 5775 5771 5767 5763 5759 5757 5754 5752 5751 5750 5749 5749 5750 5750 5751 5753 5754 5755 5757 5759 5761 5763 5765 5767 5769 5771 5772 5774 5775 5777 5778 5779
5822 5819 5815 5811 5807 5803 5799 5795 5791 5787 5782 5778 5774 5769 5765 5762 5759 5757 5755 5753 5752 5751 5751 5751 5751 5752 5753 5754 5755 5757 5759 5761 5763 5764 5766 5768 5769 5771 5772 5774 5775 5776 5777
5825 5822 5818 5814 5811 5807 5803 5799 5795 5790 5786 5781 5777 5773 5770 5767 5764 5761 5759 5757 5755 5754 5754 5754 5754 5754 5755 5756 5757 5758 5760 5761 5763 5764 5765 5767 5768 5770 5771 5772 5774 5775 5776
5828 5825 5821 5818 5814 5810 5806 5803 5799 5795 5790 5786 5782 5778 5775 5772 5769 5766 5764 5762 5760 5759 5758 5758 5758 5758 5758 5759 5759 5760 5762 5763 5764 5765 5766 5767 5768 5770 5771 5772 5773 5774 5775
5831 5828 5825 5821 5818 5814 5810 5807 5803 5799 5795 5791 5787 5783 5780 5777 5774 5772 5770 5767 5766 5764 5764 5763 5762 5762 5762 5762 5763 5763 5764 5765 5766 5767 5768 5769 5770 5771 5771 5772 5773 5774 5774
5834 5831 5828 5825 5821 5818 5814 5811 5807 5804 5800 5797 5793 5789 5786 5783 5780 5778 5776 5773 5772 5770 5769 5768 5767 5767 5766 5766 5766 5767 5767 5768 5769 5769 5770 5771 5772 5772 5773 5773 5774 5774 5775
5836 5834 5831 5828 5825 5822 5818 5815 5812 5809 5805 5802 5799 5795 5792 5789 5787 5784 5782 5780 5778 5776 5775 5774 5773 5772 5771 5771 5771 5771 5771 5772 5772 5773 5773 5773 5774 5774 5775 5775 5775 5776 5776
5837 5835 5833 5830 5828 5825 5822 5819 5816 5813 5810 5807 5804 5801 5798 5796 5793 5790 5788 5786 5784 5783 5781 5780 5779 5778 5777 5777 5776 5776 5776 5776 5776 5776 5776 5776 5777 5777 5777 5777 5777 5777 5777
5838 5836 5834 5832 5829 5827 5824 5822 5819 5817 5814 5811 5809 5806 5804 5801 5799 5796 5794 5792 5790 5789 5787 5786 5785 5783 5783 5782 5781 5781 5781 5780 5780 5780 5780 5780 5780 5779 5779 5779 5779 5779 5779
5838 5836 5834 5832 5830 5828 5826 5824 5822 5819 5817 5815 5812 5810 5808 5806 5804 5801 5799 5797 5796 5794 5792 5791 5790 5789 5788 5787 5786 5785 5785 5784 5784 5783 5783 5782 5782 5782 5781 5781 5780 5780 5779
5837 5835 5834 5832 5830 5828 5827 5825 5823 5821 5819 5817 5815 5813 5811 5809 5807 5805 5804 5802 5800 5799 5797 5796 5794 5793 5792 5791 5790 5789 5788 5787 5787 5786 5785 5785 5784 5783 5783 5782 5781 5781 5780
5835 5833 5832 5831 5829 5828 5826 5825 5823 5821 5819 5818 5816 5814 5813 5811 5809 5808 5806 5805 5803 5802 5800 5799 5798 5796 5795 5794 5793 5792 5791 5790 5789 5788 5787 5786 5786 5785 5784 5783 5782 5781 5780
5832 5831 5830 5829 5827 5826 5825 5823 5822 5820 5819 5817 5816 5814 5813 5812 5810 5809 5807 5806 5805 5803 5802 5801 5799 5798 5797 5796 5795 5794 5793 5791 5790 5789 5788 5787 5786 5785 5784 5783 5782 5781 5779
5828 5827 5826 5825 5824 5823 5822 5821 5820 5818 5817 5816 5815 5813 5812 5811 5809 5808 5807 5806 5805 5803 5802 5801 5800 5799 5797 5796 5795 5794 5793 5792 5791 5789 5788 5787 5786 5785 5783 5782 5781 5779 5778
5823 5822 5822 5821 5820 5819 5818 5817 5816 5815 5814 5813 5812 5811 5810 5808 5807 5806 5805 5804 5803 5802 5801 5800 5799 5798 5796 5795 5794 5793 5792 5791 5790 5789 5787 5786 5785 5783 5782 5781 5779 5778 5776